Powrót do katalogu

STARLINK-4030

AktywnyŁącznośćVLEO
NORAD 52698·PAYLOAD·🇺🇸 United States

Wystrzelony May 18, 2022 z Cape Canaveral Space Force Station

Loading…

Następne Przeloty (najbliższe 24 godziny)

TLE

ŚwieżeSource: CelesTrak SupGP

Epoka: Sep 14, 2026, 21:57 UTC

1 52698C 22053AU  26257.91506944 -.00310500  00000+0 -91608-2 0  2575
2 52698  53.1602  13.6416 0001238  80.6379 202.1906 15.34590479    15

Śledź STARLINK-4030 w czasie rzeczywistym z AllMySat

Download on the App Store